Weather History for KAST - August, 2014

Change the Weather History Date:

Thursday, August 21, 2014

  Actual Average Record
Temperature  
Mean Temperature 62 °F 61 °F  
Max Temperature 71 °F 69 °F 85 °F (1942)
Min Temperature 52 °F 53 °F 42 °F (1973)
Degree Days  
Heating Degree Days 3 4  
Month to date heating degree days 40 84  
Since 1 June heating degree days 325 476  
Since 1 July heating degree days 145 234  
Cooling Degree Days 0 0  
Month to date cooling degree days 2 0  
Year to date cooling degree days 21 3  
Since 1 June cooling degree days 10 3  
Growing Degree Days 12 (Base 50)    
Moisture  
Dew Point 53 °F    
Average Humidity 74    
Maximum Humidity 93    
Minimum Humidity 55    
Precipitation  
Precipitation T in 0.04 in 1.16 in (2004)
Month to date precipitation 0.56 0.66  
Year to date precipitation 42.17 37.60  
Sea Level Pressure  
Sea Level Pressure 30.03 in    
Wind  
Wind Speed 5 mph (South)    
Max Wind Speed 13 mph    
Max Gust Speed 15 mph    
Visibility 10 miles    
Events      
T = Trace of Precipitation, MM = Missing Value Source: NWS Daily Summary

Daily Weather History Graph

Daily Weather History Graph

Search for Another Location

Airport or City:

Trip Planner

Search our weather history database for the weather conditions in past years. The results will help you decide how hot, cold, wet, or windy it might be!

Date:

Astronomy

Aug. 21, 2014 Rise Set
Actual Time 6:22 AM PDT 8:13 PM PDT
Civil Twilight 5:50 AM PDT 8:45 PM PDT
Nautical Twilight 5:10 AM PDT 9:25 PM PDT
Astronomical Twilight 4:27 AM PDT 10:07 PM PDT
Moon 2:52 AM PDT (8/21) 5:51 PM PDT (8/21)
Length of Visible Light 14h 55m
Length of Day
13h 51m
Waning Crescent, 13% of the Moon is Illuminated
Aug 21
Waning Crescent
Aug 25
New
Sep 2
First Quarter
Sep 8
Full
Sep 15
Last Quarter

Hourly Weather History & Observations

Time (PDT) Temp. Dew Point Humidity Pressure Visibility Wind Dir Wind Speed Gust Speed Precip Events Conditions
12:13 AM 55.9 °F 51.1 °F 84% 30.04 in 10.0 mi SW 3.5 mph - N/A   Mostly Cloudy
12:22 AM 55.9 °F 51.1 °F 84% 30.04 in 10.0 mi SW 3.5 mph - N/A   Scattered Clouds
12:51 AM 53.6 °F 50.0 °F 88% 30.04 in 10.0 mi West 5.8 mph - N/A   Mostly Cloudy
12:55 AM 54.0 °F 50.0 °F 86% 30.04 in 10.0 mi WSW 4.6 mph - N/A   Mostly Cloudy
1:55 AM 53.1 °F 50.0 °F 89% 30.05 in 10.0 mi WSW 4.6 mph - N/A   Mostly Cloudy
2:55 AM 54.0 °F 50.0 °F 86% 30.05 in 10.0 mi SE 3.5 mph - N/A   Partly Cloudy
3:20 AM 53.1 °F 51.1 °F 93% 30.04 in 10.0 mi SE 5.8 mph - N/A   Mostly Cloudy
3:55 AM 53.1 °F 51.1 °F 93% 30.04 in 10.0 mi SSE 3.5 mph - N/A   Overcast
4:55 AM 53.1 °F 51.1 °F 93% 30.04 in 10.0 mi SE 5.8 mph - N/A   Overcast
5:55 AM 53.1 °F 51.1 °F 93% 30.03 in 10.0 mi East 4.6 mph - N/A   Overcast
6:30 AM 53.1 °F 51.1 °F 93% 30.03 in 10.0 mi ESE 4.6 mph - N/A   Scattered Clouds
6:53 AM 53.6 °F 51.8 °F 94% 30.03 in 10.0 mi ESE 3.5 mph - N/A   Mostly Cloudy
6:55 AM 53.1 °F 51.1 °F 93% 30.04 in 10.0 mi ESE 4.6 mph - N/A   Mostly Cloudy
7:20 AM 53.1 °F 51.1 °F 93% 30.04 in 10.0 mi East 3.5 mph - N/A   Overcast
7:39 AM 54.0 °F 52.0 °F 93% 30.05 in 10.0 mi Calm Calm - N/A   Overcast
7:55 AM 55.0 °F 52.0 °F 89% 30.05 in 10.0 mi East 3.5 mph - N/A   Overcast
8:55 AM 57.9 °F 54.0 °F 87% 30.05 in 10.0 mi Calm Calm - N/A   Overcast
9:55 AM 62.1 °F 54.0 °F 75% 30.05 in 10.0 mi ESE 4.6 mph - N/A   Overcast
10:48 AM 64.4 °F 53.6 °F 68% 30.05 in 10.0 mi Calm Calm - N/A   Overcast
10:55 AM 64.0 °F 53.1 °F 67% 30.05 in 10.0 mi Calm Calm - N/A   Overcast
11:55 AM 68.0 °F 52.0 °F 56% 30.04 in 10.0 mi NE 3.5 mph - N/A   Scattered Clouds
12:55 PM 66.9 °F 54.0 °F 63% 30.04 in 10.0 mi North 8.1 mph - N/A   Mostly Cloudy
1:55 PM 68.0 °F 55.9 °F 65% 30.03 in 10.0 mi North 10.4 mph - N/A   Partly Cloudy
2:55 PM 70.0 °F 53.1 °F 55% 30.02 in 10.0 mi West 6.9 mph - N/A   Clear
3:55 PM 69.1 °F 55.0 °F 61% 30.01 in 10.0 mi West 10.4 mph - N/A   Clear
4:55 PM 66.9 °F 55.0 °F 66% 30.01 in 10.0 mi WSW 10.4 mph - N/A   Clear
5:55 PM 64.9 °F 55.0 °F 70% 30.00 in 10.0 mi WSW 8.1 mph - N/A   Mostly Cloudy
6:55 PM 63.0 °F 55.0 °F 75% 29.99 in 10.0 mi WSW 4.6 mph - N/A   Scattered Clouds
7:55 PM 62.1 °F 55.0 °F 78% 29.99 in 10.0 mi SW 4.6 mph - N/A   Overcast
8:50 PM 60.8 °F 55.4 °F 82% 29.99 in 10.0 mi Calm Calm - N/A   Overcast
8:55 PM 61.0 °F 55.0 °F 81% 29.99 in 10.0 mi South 3.5 mph - N/A   Overcast
9:55 PM 62.1 °F 55.9 °F 80% 29.99 in 10.0 mi Calm Calm - N/A   Overcast
10:55 PM 62.1 °F 55.9 °F 80% 29.99 in 10.0 mi SE 3.5 mph - N/A   Overcast
11:55 PM 61.0 °F 55.9 °F 83% 29.99 in 10.0 mi South 3.5 mph - N/A   Overcast